Temperature
8 6 6 7 7 8 8 8 8 8 9 9 8 8 8 8 8 8 9 9 9 9 9 9 9 9 9 9 10 9 9 9 9 9 9 9 9 9 9 9 9 9 9 9
6 6 7 7 8 8 8 8 8 8 8 8 7 7 7 7 8 8 8 9 9 9 9 9 9 9 9 9 9 9 9 9 9 9 9 9 8 8 8 8 8 8 8 8
6 6 7 7 7 7 7 7 7 7 8 7 7 7 7 7 7 8 8 9 9 9 9 9 9 9 9 9 9 9 9 9 8 8 8 8 8 8 8 8 8 8 8 8
5 6 7 7 6 7 7 7 7 7 6 5 6 6 6 6 6 6 7 7 8 8 8 8 8 9 9 9 8 8 8 8 8 8 8 7 7 7 7 7 7 7 7 7
5 6 6 6 6 6 6 7 7 6 6 5 5 5 5 5 6 6 6 7 8 8 8 8 8 8 8 8 8 8 8 8 7 7 7 7 7 7 7 7 7 7 7 7
5 6 6 6 6 6 6 6 5 4 4 5 4 4 5 4 5 6 5 6 7 7 7 7 8 8 7 7 7 7 7 7 7 7 7 6 6 6 6 6 6 6 6 6
4 5 5 6 5 6 5 4 4 4 4 4 4 4 5 5 5 5 5 6 6 7 7 7 7 7 7 7 7 7 6 6 6 6 6 6 6 6 6 6 6 6 6 6
3 4 4 5 5 4 4 5 4 5 4 4 4 4 4 4 4 5 6 6 6 6 6 6 6 7 7 7 6 6 6 6 6 6 6 5 5 5 5 5 5 5 5 5
3 3 4 4 5 5 4 4 4 3 3 3 4 4 4 4 4 4 4 5 5 5 5 6 6 6 6 6 6 6 5 5 5 5 5 5 5 5 4 4 4 4 4 4
3 3 3 4 4 4 4 3 3 3 4 4 4 4 4 4 3 3 3 3 4 4 5 5 5 5 5 6 5 5 5 5 4 4 4 4 4 4 4 4 4 4 4 4
2 2 2 3 3 3 3 3 3 2 3 4 4 4 4 3 3 3 3 3 4 4 4 4 4 4 5 5 5 4 4 4 4 4 4 3 3 4 3 3 3 3 3 3
2 1 1 2 2 3 3 3 2 3 2 2 2 4 4 3 3 3 3 3 3 4 4 4 4 4 4 4 4 4 4 4 3 3 3 3 3 3 3 3 3 3 3 3
2 1 1 2 2 2 2 2 2 2 1 1 2 3 3 2 2 3 3 3 3 3 3 3 3 3 3 3 3 3 3 3 3 3 2 2 2 2 2 2 2 2 2 2
2 0 1 2 2 1 1 1 1 1 1 1 2 2 2 2 2 2 2 3 3 3 3 3 3 3 3 3 3 2 2 2 2 2 2 2 2 2 2 2 2 2 1 1
1 0 0 1 1 1 1 1 1 1 1 2 2 2 2 2 1 1 2 2 2 2 2 2 2 2 2 2 2 2 2 2 2 1 1 1 1 1 1 1 1 1 1 1
-1 -0 -0 -0 1 1 0 0 1 1 1 1 1 1 1 2 2 1 1 1 1 1 1 2 2 2 2 2 2 1 1 1 1 1 1 1 1 1 1 0 0 0 0 0
-2 -1 -1 -1 -1 0 0 -0 -0 -0 -0 0 1 1 0 -0 -0 0 1 1 1 1 1 1 1 1 1 1 1 1 1 0 0 0 0 0 0 0 0 -0 -0 -0 -0 -1
-2 -2 -2 -2 -1 0 1 -0 -0 -0 -1 -1 -1 -0 -0 0 1 1 1 1 1 1 1 1 1 1 1 1 0 0 0 -0 -0 -0 -0 -1 -1 -1 -1 -1 -1 -1 -1 -1
-2 -2 -3 -2 -1 -1 0 -0 -1 -1 -1 -1 -1 -1 -1 -0 -0 -0 1 1 1 1 1 1 1 1 0 0 -0 -0 -0 -1 -1 -1 -1 -1 -1 -1 -1 -1 -1 -2 -2 -2
-3 -3 -3 -3 -1 -1 1 -0 -1 -1 -1 -1 -2 -2 -2 -2 -2 -1 1 1 1 0 0 0 0 -0 -0 -0 -1 -1 -1 -1 -1 -1 -2 -2 -2 -2 -2 -2 -2 -2 -2 -2
-3 -3 -3 -3 -2 -1 -1 -1 -1 -0 0 -1 -1 -1 -2 -2 -1 -0 0 0 -0 -0 -0 -0 -0 -1 -1 -1 -1 -1 -2 -2 -2 -2 -2 -2 -2 -2 -2 -2 -2 -3 -3 -3
-3 -3 -3 -3 -2 -1 -2 -2 -1 -1 -0 -0 -0 -1 -1 -1 -1 -1 -0 -0 -1 -1 -1 -1 -1 -1 -2 -2 -2 -2 -2 -2 -2 -3 -3 -3 -3 -3 -3 -3 -3 -3 -3 -3
-4 -3 -3 -3 -1 -2 -2 -1 -0 -0 -0 -0 -0 -0 -1 -1 -1 -1 -1 -1 -1 -1 -1 -2 -2 -2 -2 -2 -2 -2 -2 -3 -3 -3 -3 -3 -3 -3 -3 -3 -3 -3 -4 -4
-5 -4 -4 -4 -4 -3 -2 -1 -0 -0 -0 -0 -1 -1 -1 -1 -1 -2 -2 -2 -2 -2 -2 -2 -3 -3 -3 -3 -3 -3 -3 -3 -3 -3 -3 -3 -4 -4 -4 -4 -4 -4 -4 -4
-4 -5 -5 -4 -4 -3 -2 -1 -0 -1 -1 -1 -1 -1 -2 -2 -2 -2 -2 -3 -3 -3 -3 -3 -3 -3 -3 -3 -3 -3 -3 -4 -4 -4 -4 -4 -4 -4 -4 -4 -4 -4 -4 -5
-5 -5 -4 -3 -3 -3 -2 -1 -1 -1 -1 -1 -2 -2 -2 -2 -2 -3 -3 -3 -3 -3 -3 -4 -4 -4 -4 -4 -4 -4 -4 -4 -4 -4 -4 -4 -4 -4 -4 -4 -4 -5 -5 -5
Wind_Speed
1 3 5 7 7 4 4 4 4 4 2 2 6 8 8 6 6 8 8 8 8 8 6 5 5 5 5 4 5 4 4 3 3 2 2 2 1 1 1 2 3 2 2 1
2 4 6 3 3 2 3 3 3 2 1 2 5 9 8 7 8 8 10 10 9 7 5 5 5 4 4 4 4 4 3 3 2 2 2 2 2 1 1 1 2 3 3 1
6 4 3 4 3 3 4 5 5 3 2 2 1 6 6 4 4 6 7 8 8 10 10 8 7 5 5 4 4 4 3 3 2 2 2 2 2 1 1 1 1 2 3 2
3 3 2 3 4 5 6 4 4 3 2 3 1 5 6 4 4 6 7 6 7 7 7 7 7 6 6 5 4 4 3 3 2 2 3 3 2 1 1 1 1 2 2 2
3 2 3 4 5 5 5 1 2 3 3 2 2 3 7 2 5 7 7 7 7 6 7 8 8 8 6 5 4 4 3 3 2 3 3 3 2 1 1 0 1 1 2 3
2 1 2 3 2 4 3 3 3 3 2 5 7 6 6 5 7 6 7 6 6 5 6 6 5 6 5 4 4 4 4 2 2 3 2 2 2 1 1 0 1 1 1 2
2 3 1 1 2 1 3 4 1 1 2 6 4 5 8 6 5 6 7 6 5 6 6 6 6 6 6 5 4 4 4 2 2 2 2 2 2 2 2 1 1 1 1 1
4 4 3 2 4 5 5 6 6 5 5 4 2 6 6 4 3 2 3 3 4 4 5 5 5 6 6 5 5 4 4 2 2 2 1 1 2 1 1 1 1 2 2 2
6 4 1 1 0 5 4 4 4 4 1 2 4 5 5 2 2 1 2 3 3 4 4 5 4 4 4 5 5 5 4 3 2 1 1 1 1 2 1 1 1 1 2 2
4 2 2 1 1 1 3 5 4 4 4 4 4 4 4 4 4 2 3 3 3 3 3 3 3 3 3 3 3 3 3 3 2 1 1 1 1 1 2 1 1 1 2 2
2 3 1 0 4 5 3 3 3 3 3 4 4 5 3 5 4 5 5 4 4 4 4 3 2 2 2 2 2 2 2 2 2 1 1 1 1 1 1 1 2 2 2 2
2 3 2 4 3 2 3 5 5 5 4 4 3 5 3 2 2 4 4 3 3 3 3 2 2 2 2 2 2 2 2 2 1 1 0 0 1 0 0 1 1 1 1 2
4 4 2 3 3 1 2 3 4 3 3 4 4 5 2 1 1 1 3 3 3 2 2 1 1 2 2 2 2 1 1 1 1 1 1 0 0 0 1 1 1 1 1 1
3 3 5 8 5 4 4 4 4 5 4 4 7 6 4 2 1 1 1 2 2 2 2 2 2 1 1 1 2 1 0 0 1 1 1 1 1 1 1 1 1 1 1 1
3 3 3 4 3 3 5 6 7 8 8 8 6 7 8 6 5 3 2 1 1 2 2 2 2 2 1 1 1 1 0 0 0 1 1 1 1 0 0 0 1 1 1 1
2 3 1 3 2 2 4 6 8 9 7 7 6 8 6 3 2 2 2 3 3 3 3 3 2 2 2 1 1 1 1 0 1 1 1 0 0 0 0 0 0 1 1 1
2 4 3 3 2 2 6 8 9 5 5 7 10 10 3 3 4 5 5 5 5 5 4 4 4 3 3 3 2 2 2 1 1 1 1 0 0 0 0 0 1 1 1 1
5 4 3 1 2 6 7 3 6 7 5 7 6 5 5 6 5 4 4 5 5 5 4 4 3 3 2 2 1 1 1 1 1 1 1 1 1 1 0 0 0 1 0 1
4 6 4 3 3 7 6 3 4 5 5 6 8 8 5 2 1 3 4 5 6 5 4 4 4 3 2 2 2 2 1 1 1 1 2 2 2 1 1 1 1 1 0 1
3 4 4 4 4 7 6 2 2 3 5 4 6 7 4 2 2 5 3 2 3 3 3 3 2 2 2 2 2 2 2 1 2 2 2 2 2 2 2 2 1 1 1 1
3 3 5 5 5 7 5 2 4 4 6 2 4 4 4 6 6 3 1 1 1 2 2 2 3 3 3 3 3 2 2 3 3 2 2 2 2 2 2 2 1 1 1 1
8 6 6 6 5 8 3 5 6 6 1 2 3 3 4 5 3 2 1 1 1 1 1 2 2 2 2 2 3 3 3 3 2 1 1 1 2 2 1 2 1 1 2 1
7 7 6 8 7 3 4 5 4 2 2 2 3 3 3 3 3 2 2 2 2 2 2 1 2 2 1 2 3 3 3 2 1 1 2 2 2 2 2 2 2 2 2 2
3 2 3 4 6 5 4 4 3 3 3 3 2 2 3 4 3 3 2 2 2 2 2 1 2 2 2 2 2 3 2 2 1 2 2 2 2 2 2 2 2 2 2 2
5 5 4 4 4 3 4 4 4 3 2 1 1 2 3 3 3 3 3 3 2 2 1 2 2 2 3 2 2 2 2 2 2 2 2 2 2 2 2 2 2 3 4 4
4 6 7 7 6 5 5 4 3 2 3 3 2 2 2 3 4 3 3 3 2 2 2 2 2 2 3 3 3 3 2 3 3 2 3 2 2 2 2 2 2 4 4 5
Wind_Direction
90 107 200 209 203 197 169 178 210 227 245 197 228 246 245 231 218 213 207 199 194 196 192 174 158 140 127 120 120 122 117 119 131 135 139 145 153 152 101 53 46 37 39 84
78 239 230 193 182 188 188 200 233 278 290 228 253 263 255 231 218 211 203 199 198 193 182 175 163 148 145 145 138 134 133 135 145 153 160 164 169 179 190 41 37 31 22 17
185 226 199 167 178 194 232 211 214 224 323 345 315 289 260 254 219 216 207 199 195 193 189 184 175 168 159 158 158 153 145 138 138 137 124 103 82 63 40 6 336 2 9 12
223 255 184 174 207 189 235 232 205 197 180 263 183 270 270 250 242 224 219 202 199 200 190 182 176 173 174 175 160 147 141 124 112 115 134 141 148 182 224 241 259 347 12 2
228 212 184 206 221 189 209 206 187 189 180 260 233 219 279 267 243 238 226 214 208 199 183 179 175 174 168 161 152 145 134 122 114 108 128 140 152 196 215 293 349 337 6 5
248 265 196 205 228 188 155 67 41 54 108 244 222 196 269 230 223 229 223 219 209 185 169 167 161 151 149 146 144 140 138 131 128 117 115 131 151 162 144 153 286 312 329 355
294 288 269 146 110 96 132 121 67 320 238 244 204 195 248 252 237 221 214 213 200 173 164 159 153 154 154 154 155 151 146 142 139 127 122 139 156 156 167 205 242 269 295 299
186 254 234 207 181 182 192 168 175 199 218 262 210 223 254 282 279 241 198 180 159 158 161 161 163 166 169 166 162 158 160 164 158 148 154 161 159 158 189 203 246 257 263 269
183 228 313 312 178 154 158 198 176 146 169 247 252 273 301 333 354 49 121 126 151 163 161 163 163 164 170 171 171 170 169 167 165 163 173 172 164 170 197 219 228 263 292 297
159 201 273 304 44 353 167 150 125 161 187 239 267 254 247 260 250 217 182 180 178 156 149 156 162 166 171 169 166 160 161 167 160 148 181 178 187 197 199 195 230 257 281 300
114 144 299 327 201 198 162 167 164 167 181 186 239 260 240 224 216 199 202 193 177 172 173 175 171 166 156 139 139 149 156 143 138 148 177 176 223 219 197 207 236 248 268 278
125 123 216 251 270 236 200 195 170 180 218 195 197 262 307 222 223 190 188 181 173 172 175 172 163 139 126 131 131 134 143 145 162 181 190 235 267 269 240 247 276 294 288 290
135 128 99 338 317 315 226 215 192 158 147 175 191 255 322 20 51 157 159 168 173 172 165 152 152 150 154 150 130 124 123 143 162 169 170 73 335 281 256 264 287 320 318 326
129 148 187 205 217 192 222 222 185 169 191 211 219 237 275 289 273 272 187 181 172 172 173 172 176 177 172 161 149 145 153 179 165 141 154 185 256 247 246 255 258 298 321 324
120 176 216 244 243 199 218 222 198 202 206 208 227 225 246 242 234 231 222 195 172 185 185 189 190 191 181 165 164 162 159 194 177 156 175 226 246 244 236 275 296 322 329 330
108 164 174 279 265 236 255 243 219 221 221 224 241 256 253 243 201 206 214 199 208 217 214 211 205 198 203 206 212 203 210 238 182 177 225 260 209 132 107 308 343 360 349 355
143 137 148 249 307 2 266 232 208 210 211 199 225 239 226 225 225 221 215 211 218 222 222 212 209 211 215 215 207 206 212 202 187 198 217 224 200 184 235 312 16 347 355 10
157 143 145 152 80 234 246 214 194 201 230 216 219 240 226 227 236 229 213 212 225 228 223 221 212 212 217 209 193 189 182 186 198 214 223 220 197 192 207 183 270 303 334 353
165 150 143 155 221 272 284 243 174 187 254 228 226 246 254 257 321 284 241 218 222 224 223 220 208 202 190 187 180 160 173 185 199 221 229 232 212 207 219 227 246 270 292 303
104 124 145 159 192 237 249 218 170 123 274 238 210 234 235 145 233 262 259 239 238 234 219 203 181 165 174 194 170 156 182 196 231 242 237 231 222 217 222 225 233 248 260 271
153 157 182 188 221 257 251 204 131 169 241 228 198 221 200 201 224 252 257 263 245 236 208 176 165 174 194 192 167 170 195 229 249 260 246 232 232 230 224 216 222 222 242 270
178 176 189 175 209 248 210 145 182 212 205 181 202 218 217 226 240 244 234 230 224 211 187 171 168 190 201 184 168 185 223 241 243 250 254 250 248 243 235 206 221 221 215 235
198 193 187 194 213 243 183 195 217 186 203 221 215 231 211 211 228 229 232 227 236 217 208 188 171 191 225 205 183 204 236 225 208 242 257 260 266 255 238 214 217 225 224 230
244 189 174 235 256 251 238 248 252 221 221 233 219 218 199 210 219 222 222 230 236 232 209 192 173 194 237 241 222 218 227 212 200 239 255 254 245 251 246 239 226 223 229 235
209 172 189 241 263 292 268 236 235 236 230 228 233 214 205 197 220 219 223 230 231 235 242 207 205 225 246 247 248 242 221 196 213 243 248 249 247 246 247 252 239 240 240 238
195 182 187 222 216 200 233 232 209 203 222 226 232 252 231 206 220 224 230 234 226 227 230 225 229 237 251 250 255 256 232 207 210 241 242 235 240 244 239 249 283 277 266 273
Height
1498 1503 1504 1502 1503 1503 1504 1506 1507 1506 1504 1505 1506 1504 1503 1502 1502 1502 1503 1504 1505 1507 1510 1511 1513 1514 1516 1518 1519 1520 1522 1523 1524 1524 1525 1526 1526 1527 1527 1527 1527 1527 1528 1528
1503 1503 1500 1500 1501 1502 1503 1506 1507 1506 1504 1505 1506 1504 1500 1499 1498 1498 1499 1500 1502 1504 1506 1508 1510 1512 1513 1515 1517 1518 1519 1520 1521 1522 1523 1523 1524 1524 1525 1525 1525 1525 1525 1525
1500 1500 1497 1499 1501 1503 1504 1506 1506 1507 1506 1506 1507 1504 1498 1495 1494 1496 1496 1497 1499 1500 1502 1504 1507 1509 1510 1512 1514 1516 1517 1518 1519 1520 1520 1521 1521 1521 1522 1522 1522 1522 1522 1522
1500 1498 1497 1499 1501 1502 1505 1502 1503 1505 1510 1513 1510 1512 1499 1495 1493 1493 1493 1494 1495 1497 1498 1501 1503 1505 1507 1509 1511 1513 1514 1515 1516 1517 1518 1518 1518 1518 1519 1519 1519 1519 1519 1519
1499 1497 1497 1499 1499 1500 1502 1501 1503 1505 1510 1514 1512 1514 1501 1495 1493 1491 1490 1490 1491 1493 1495 1497 1500 1502 1504 1507 1508 1510 1512 1513 1514 1514 1515 1515 1516 1516 1516 1516 1516 1516 1516 1516
1498 1496 1497 1497 1497 1498 1500 1503 1506 1510 1514 1515 1510 1512 1502 1496 1489 1487 1487 1487 1488 1490 1492 1494 1497 1500 1502 1504 1506 1507 1509 1510 1511 1511 1512 1513 1513 1513 1514 1514 1514 1513 1513 1513
1500 1497 1496 1496 1498 1499 1500 1508 1516 1515 1517 1510 1505 1506 1497 1487 1484 1483 1484 1484 1486 1488 1490 1492 1494 1496 1499 1501 1502 1504 1506 1507 1508 1509 1509 1510 1510 1511 1511 1511 1511 1511 1510 1509
1502 1502 1496 1495 1496 1499 1500 1503 1510 1513 1514 1510 1505 1503 1492 1485 1482 1481 1482 1483 1485 1486 1488 1490 1492 1494 1496 1498 1500 1501 1503 1504 1505 1506 1506 1507 1508 1508 1508 1508 1508 1508 1507 1506
1499 1500 1495 1494 1494 1495 1499 1502 1502 1510 1514 1511 1504 1498 1489 1483 1482 1481 1482 1482 1484 1485 1487 1489 1490 1492 1494 1495 1497 1498 1500 1501 1502 1503 1503 1504 1504 1504 1505 1504 1504 1504 1504 1503
1493 1500 1497 1495 1494 1495 1496 1498 1505 1508 1508 1505 1500 1497 1492 1485 1483 1483 1482 1482 1483 1485 1487 1488 1489 1491 1492 1493 1495 1496 1497 1498 1499 1499 1500 1501 1501 1501 1501 1501 1501 1500 1500 1500
1493 1499 1501 1498 1497 1497 1498 1499 1500 1505 1505 1504 1503 1495 1484 1482 1481 1481 1481 1482 1483 1484 1486 1487 1488 1489 1490 1491 1493 1493 1494 1495 1496 1497 1498 1498 1498 1498 1498 1497 1497 1497 1496 1496
1492 1499 1504 1500 1496 1494 1494 1495 1498 1501 1504 1506 1505 1496 1481 1481 1480 1479 1480 1482 1483 1484 1485 1486 1487 1488 1489 1489 1490 1491 1492 1492 1493 1494 1494 1494 1494 1494 1494 1494 1494 1493 1493 1492
1490 1498 1504 1501 1501 1498 1495 1494 1495 1498 1501 1505 1503 1494 1482 1481 1480 1479 1480 1481 1482 1483 1484 1485 1485 1486 1487 1487 1488 1489 1489 1490 1491 1491 1491 1491 1491 1491 1491 1490 1490 1490 1489 1488
1487 1494 1496 1494 1491 1493 1495 1493 1494 1495 1498 1499 1495 1488 1483 1481 1481 1480 1480 1481 1481 1482 1483 1483 1484 1484 1485 1485 1486 1487 1487 1487 1488 1488 1488 1488 1488 1488 1488 1487 1487 1486 1485 1485
1486 1492 1493 1491 1489 1490 1490 1489 1490 1491 1489 1490 1486 1486 1481 1479 1480 1480 1480 1480 1480 1480 1481 1481 1481 1482 1483 1483 1484 1484 1485 1485 1485 1485 1485 1485 1485 1485 1485 1484 1484 1483 1482 1481
1487 1492 1493 1492 1489 1489 1489 1487 1486 1486 1485 1486 1485 1483 1477 1477 1478 1478 1478 1478 1478 1479 1479 1479 1480 1480 1480 1481 1481 1482 1482 1482 1482 1482 1482 1482 1482 1482 1482 1481 1480 1480 1479 1478
1489 1492 1494 1494 1492 1488 1488 1482 1482 1482 1481 1481 1480 1476 1475 1476 1476 1475 1475 1476 1476 1476 1476 1477 1477 1477 1478 1479 1479 1479 1479 1479 1480 1479 1479 1479 1479 1479 1478 1478 1477 1477 1476 1475
1487 1491 1496 1498 1496 1493 1477 1474 1474 1476 1476 1476 1473 1472 1472 1472 1472 1473 1473 1473 1473 1473 1474 1474 1474 1475 1476 1476 1476 1476 1477 1477 1477 1477 1477 1477 1476 1476 1475 1475 1474 1474 1473 1472
1482 1487 1495 1498 1495 1486 1477 1472 1473 1475 1474 1471 1471 1470 1470 1470 1470 1470 1470 1470 1470 1470 1471 1471 1472 1472 1473 1473 1473 1474 1474 1474 1474 1474 1474 1474 1473 1473 1472 1472 1471 1471 1470 1469
1483 1485 1492 1496 1492 1486 1471 1469 1469 1472 1473 1466 1466 1466 1467 1469 1472 1467 1466 1466 1467 1468 1468 1469 1469 1469 1470 1470 1471 1471 1470 1471 1471 1471 1471 1471 1471 1470 1469 1469 1469 1468 1467 1467
1484 1487 1489 1491 1490 1479 1469 1467 1469 1475 1468 1463 1462 1463 1464 1465 1465 1464 1463 1463 1464 1464 1465 1465 1466 1466 1467 1467 1467 1467 1468 1468 1468 1468 1468 1468 1467 1467 1467 1466 1466 1465 1465 1464
1477 1481 1485 1487 1487 1477 1465 1466 1467 1464 1461 1461 1461 1461 1461 1461 1461 1461 1461 1460 1461 1461 1462 1462 1463 1463 1464 1464 1464 1464 1465 1465 1465 1465 1464 1464 1464 1464 1464 1463 1463 1462 1462 1461
1472 1470 1471 1471 1468 1462 1460 1460 1459 1460 1460 1460 1459 1459 1459 1458 1458 1458 1458 1458 1458 1458 1459 1459 1460 1460 1460 1461 1461 1461 1462 1462 1461 1461 1461 1461 1461 1461 1460 1460 1460 1459 1459 1458
1467 1465 1467 1467 1462 1459 1458 1458 1458 1458 1458 1458 1458 1458 1457 1456 1456 1456 1456 1456 1456 1456 1456 1456 1456 1457 1457 1458 1458 1458 1458 1458 1458 1458 1458 1458 1457 1457 1457 1457 1457 1456 1456 1455
1460 1463 1464 1463 1459 1457 1455 1455 1455 1455 1456 1456 1455 1455 1455 1454 1454 1453 1453 1453 1453 1453 1453 1454 1454 1453 1454 1454 1454 1455 1455 1455 1455 1454 1454 1454 1454 1454 1454 1454 1454 1453 1453 1453
1456 1457 1459 1456 1453 1454 1453 1452 1453 1453 1453 1453 1453 1452 1452 1452 1451 1451 1450 1450 1450 1450 1450 1450 1450 1451 1451 1451 1451 1451 1452 1452 1451 1451 1451 1451 1451 1451 1450 1450 1450 1450 1450 1450